Location: Campillo
(40.8621°N, 4.2488°W)
Time: 13:11:32
(UTC+00:00)

USA 308 - Pass Details

Date: 22 September 2021
Orbit: 566 x 573 km, 54.0° (Epoch: 23 September)

Event Time Altitude Azimuth Distance (km) Brightness Sun altitude
Rises 20:58:42 0° 313° (NW) 2,772 7.5 -30.6°
Reaches altitude 10° 21:01:30 10° 332° (NNW) 1,875 6.2 -31.1°
Enters shadow 21:03:06 16° 352° (N) 1,515 5.4 -31.3°
